Location: Newark
(29.9790°N, 31.1340°E)
Time: 20:50:44
(UTC+00:00)

A-11 Canister half - Pass Details

Date: 31 January 2020
Orbit: 1524 x 1684 km, 47.3° (Epoch: 22 February)

Event Time Altitude Azimuth Distance (km) Brightness Sun altitude
Rises 16:13:14 0° 288° (WNW) 4,676 12.6 -9.5°
Reaches altitude 10° 16:16:57 10° 300° (WNW) 3,703 11.7 -10.3°
Maximum altitude 16:24:35 27° 355° (N) 2,634 10.2 -11.9°
Enters shadow 16:32:01 11° 49° (NE) 3,695 10.5 -13.5°
